Location: Newark
(34.7667°N, 118.4167°W)
Time: 18:03:25
(UTC+00:00)

Hubble Space Telescope - Pass Details

Date: 30 October 2019
Orbit: 536 x 540 km, 28.5° (Epoch: 21 November)

Event Time Altitude Azimuth Distance (km) Brightness Sun altitude
Exits shadow 12:29:06 20° 189° (S) 1,262 2.5 -21.7°
Maximum altitude 12:30:13 23° 166° (SSE) 1,175 2.6 -21.5°
Drops below altitude 10° 12:33:29 10° 113° (ESE) 1,779 4.4 -20.8°
Sets 12:36:05 0° 99° (E) 2,670 5.9 -20.3°
